Location: Caltech
(34.1382°N, 118.1253°W)
Time: 23:53:04
(UTC-07:00)

Cosmos 2237 Rocket - Visible Passes

Search period start: 29 May 2016 00:00
Search period end: 08 June 2016 00:00
Orbit: 835 x 850 km, 71.0° (Epoch: 29 May)

Date Brightness Start Highest point End Pass type
(mag) Time Alt. Az. Time Alt. Az. Time Alt. Az.
29 May 3.8 04:53:08 10° N 04:58:29 40° ENE 05:03:48 10° SE visible
30 May 3.8 04:38:21 10° N 04:43:40 38° ENE 04:48:55 10° SE visible
31 May 3.9 04:23:35 10° N 04:28:49 37° ENE 04:34:01 10° SE visible
01 Jun 3.9 04:08:48 10° N 04:13:58 35° ENE 04:19:07 10° SE visible
02 Jun 4.0 03:54:01 10° N 03:59:08 33° ENE 04:04:13 10° SE visible
03 Jun 4.0 03:39:15 10° N 03:44:18 31° ENE 03:49:19 10° SE visible
04 Jun 4.1 03:24:29 10° N 03:29:27 30° ENE 03:34:23 10° ESE visible
04 Jun 2.9 05:08:27 10° NW 05:13:25 32° WSW 05:18:22 10° SSW visible
05 Jun 4.1 03:09:43 10° N 03:14:36 29° ENE 03:19:28 10° ESE visible
05 Jun 2.9 04:53:34 10° NW 04:58:37 34° WSW 05:03:39 10° SSW visible
06 Jun 4.1 02:54:58 10° N 02:59:46 27° ENE 03:04:32 10° ESE visible
06 Jun 2.8 04:38:41 10° NW 04:43:49 36° WSW 04:48:55 10° SSW visible
07 Jun 4.2 02:40:12 10° N 02:44:55 26° ENE 02:49:36 10° ESE visible
07 Jun 2.7 04:23:48 10° NW 04:29:00 38° WSW 04:34:11 10° S visible
